TimeCST,TemperatureF,Dew PointF,Humidity,Sea Level PressureIn,VisibilityMPH,Wind Direction,Wind SpeedMPH,Gust SpeedMPH,PrecipitationIn,Events,Conditions,WindDirDegrees,DateUTC
12:53 AM,51.1,46.9,86,29.93,10.0,Calm,Calm,-,N/A,,Clear,0,2012-12-24 06:53:00
1:53 AM,48.9,45.0,86,29.92,10.0,Calm,Calm,-,N/A,,Clear,0,2012-12-24 07:53:00
2:53 AM,55.0,44.1,67,29.92,10.0,NW,5.8,-,N/A,,Clear,320,2012-12-24 08:53:00
3:53 AM,48.0,41.0,77,29.94,10.0,NNE,6.9,-,N/A,,Clear,30,2012-12-24 09:53:00
4:53 AM,46.9,39.0,74,29.94,10.0,NNE,5.8,-,N/A,,Clear,20,2012-12-24 10:53:00
5:53 AM,45.0,33.1,63,29.96,10.0,NNE,6.9,-,N/A,,Clear,20,2012-12-24 11:53:00
6:53 AM,42.1,28.9,60,29.99,10.0,NNE,9.2,-,N/A,,Clear,20,2012-12-24 12:53:00
7:53 AM,42.1,28.0,58,29.99,10.0,NNE,6.9,-,N/A,,Clear,30,2012-12-24 13:53:00
8:53 AM,46.0,28.0,50,30.01,10.0,NNE,8.1,-,N/A,,Clear,30,2012-12-24 14:53:00
9:53 AM,50.0,26.1,39,30.04,10.0,North,9.2,-,N/A,,Clear,360,2012-12-24 15:53:00
10:53 AM,53.1,25.0,34,30.01,10.0,NNE,6.9,-,N/A,,Clear,30,2012-12-24 16:53:00
11:53 AM,59.0,25.0,27,29.99,10.0,NNE,6.9,-,N/A,,Clear,20,2012-12-24 17:53:00
12:53 PM,61.0,24.1,24,29.94,10.0,Variable,5.8,-,N/A,,Clear,0,2012-12-24 18:53:00
1:53 PM,62.1,21.9,21,29.89,10.0,Calm,Calm,-,N/A,,Clear,0,2012-12-24 19:53:00
2:53 PM,64.0,21.9,20,29.85,10.0,East,5.8,-,N/A,,Clear,90,2012-12-24 20:53:00
3:53 PM,64.0,21.9,20,29.82,10.0,ESE,5.8,-,N/A,,Clear,120,2012-12-24 21:53:00
4:53 PM,63.0,21.9,21,29.80,10.0,ESE,5.8,-,N/A,,Clear,120,2012-12-24 22:53:00
5:53 PM,59.0,25.0,27,29.80,10.0,East,3.5,-,N/A,,Clear,100,2012-12-24 23:53:00
6:53 PM,54.0,25.0,33,29.81,10.0,ENE,4.6,-,N/A,,Clear,60,2012-12-25 00:53:00
7:53 PM,52.0,24.1,34,29.81,10.0,Calm,Calm,-,N/A,,Clear,0,2012-12-25 01:53:00
8:53 PM,53.1,24.1,32,29.80,10.0,East,4.6,-,N/A,,Clear,80,2012-12-25 02:53:00
9:53 PM,52.0,25.0,35,29.80,10.0,ENE,5.8,-,N/A,,Mostly Cloudy,60,2012-12-25 03:53:00
10:53 PM,53.1,26.1,35,29.78,10.0,ENE,5.8,-,N/A,,Overcast,60,2012-12-25 04:53:00
11:53 PM,53.1,26.1,35,29.75,10.0,ENE,5.8,-,N/A,,Overcast,70,2012-12-25 05:53:00